Location: El Peñón
(10.3719°N, 67.3319°W)
Time: 04:56:45
(UTC+00:00)

Nadezhda 4 Rocket - Pass Details

Date: 13 June 2024
Orbit: 949 x 992 km, 82.9° (Epoch: 21 July)

Event Time Altitude Azimuth Distance (km) Brightness Sun altitude
Rises 23:22:32 0° 176° (S) 3,646 6.7 -7.8°
Reaches altitude 10° 23:25:02 10° 173° (S) 2,705 6.0 -8.3°
Maximum altitude 23:31:10 65° 93° (E) 1,066 4.0 -9.7°
Drops below altitude 10° 23:37:22 10° 12° (NNE) 2,733 6.5 -11.1°
Sets 23:39:54 0° 9° (N) 3,685 7.3 -11.6°
